Riverside, CA

10:27 PM PST on February 22, 2017 (GMT -0800)
Riverside Municipal

Weather History for KRAL - March, 2012

Change the Weather History Date:

Sunday, March 18, 2012

  Actual Average Record
Temperature  
Mean Temperature 49 °F 59 °F  
Max Temperature 56 °F 71 °F 93 °F (1914)
Min Temperature 42 °F 47 °F 30 °F (1903)
Degree Days  
Heating Degree Days 16 6  
Month to date heating degree days 120 132  
Since 1 July heating degree days 1095 1240  
Cooling Degree Days 0 0  
Month to date cooling degree days 10 4  
Year to date cooling degree days 37 13  
Moisture  
Dew Point 37 °F    
Average Humidity 66    
Maximum Humidity 89    
Minimum Humidity 43    
Precipitation  
Precipitation 0.09 in 0.04 in 1.08 in (1982)
Month to date precipitation 0.61 1.63  
Year to date precipitation 1.65 7.61  
Since 1 July precipitation 4.33  
Snow  
Snow 0.00 in - - ()
Month to date snowfall 0.0  
Year to date snowfall 0.0  
Snow Depth 0.00 in    
Sea Level Pressure  
Sea Level Pressure 29.77 in    
Wind  
Wind Speed 12 mph (SW)    
Max Wind Speed 28 mph    
Max Gust Speed 36 mph    
Visibility 10 miles    
Events Rain    
T = Trace of Precipitation, MM = Missing Value Source: NWS Daily Summary

Daily Weather History Graph

Daily Weather History Graph

Search for Another Location

Airport or City:

Trip Planner

Search our weather history database for the weather conditions in past years. The results will help you decide how hot, cold, wet, or windy it might be!

Date:

Astronomy

Mar. 18, 2012 Rise Set
Actual Time 6:55 AM PDT 7:00 PM PDT
Civil Twilight 6:30 AM PDT 7:25 PM PDT
Nautical Twilight 6:01 AM PDT 7:54 PM PDT
Astronomical Twilight 5:32 AM PDT 8:23 PM PDT
Moon 4:27 AM PDT (3/18) 3:40 PM PDT (3/18)
Length of Visible Light 12h 54m
Length of Day
12h 04m
Waning Crescent, 14% of the Moon is Illuminated
Mar 18
Waning Crescent
Mar 22
New
Mar 30
First Quarter
Apr 6
Full
Apr 13
Last Quarter

Hourly Weather History & Observations

Time (PDT) Temp. Windchill Dew Point Humidity Pressure Visibility Wind Dir Wind Speed Gust Speed Precip Events Conditions
12:29 AM 42.8 °F 38.6 °F 37.4 °F 81% 29.75 in 6.0 mi South 6.9 mph - 0.03 in Rain Rain
12:53 AM 42.1 °F 40.2 °F 36.0 °F 79% 29.72 in 10.0 mi SSE 3.5 mph - 0.05 in   Mostly Cloudy
1:30 AM 42.8 °F - 37.4 °F 81% 29.73 in 10.0 mi Calm Calm - 0.01 in Rain Light Rain
1:53 AM 42.1 °F 40.2 °F 37.9 °F 85% 29.71 in 10.0 mi ESE 3.5 mph - 0.01 in Rain Light Rain
2:17 AM 42.8 °F - 37.4 °F 81% 29.72 in 7.0 mi Calm Calm - 0.05 in Rain Light Rain
2:53 AM 42.1 °F 39.2 °F 37.9 °F 85% 29.69 in 10.0 mi South 4.6 mph - 0.07 in Rain Light Rain
3:44 AM 42.8 °F - 37.4 °F 81% 29.70 in 10.0 mi Calm Calm - 0.01 in Rain Light Rain
3:53 AM 42.1 °F - 37.9 °F 85% 29.68 in 10.0 mi Calm Calm - 0.01 in   Overcast
4:14 AM 42.8 °F - 37.4 °F 81% 29.70 in 10.0 mi Calm Calm - 0.00 in Rain Light Rain
4:17 AM 42.8 °F - 37.4 °F 81% 29.70 in 10.0 mi Calm Calm - 0.00 in Rain Light Rain
4:53 AM 42.1 °F 40.2 °F 39.0 °F 89% 29.68 in 10.0 mi SSW 3.5 mph - 0.00 in   Overcast
5:53 AM 43.0 °F - 39.0 °F 86% 29.70 in 10.0 mi Calm Calm - 0.00 in   Overcast
6:05 AM 42.8 °F - 39.2 °F 87% 29.73 in 10.0 mi Calm Calm - N/A   Overcast
6:29 AM 42.8 °F - 39.2 °F 87% 29.73 in 10.0 mi Calm Calm - N/A   Overcast
6:38 AM 42.8 °F 41.1 °F 39.2 °F 87% 29.74 in 10.0 mi SW 3.5 mph - N/A   Overcast
6:53 AM 43.0 °F - 39.0 °F 86% 29.72 in 10.0 mi Calm Calm - N/A   Overcast
7:53 AM 44.1 °F - 39.0 °F 82% 29.74 in 10.0 mi Calm Calm - N/A   Mostly Cloudy
8:53 AM 45.0 °F 41.8 °F 39.0 °F 80% 29.77 in 10.0 mi SW 5.8 mph - N/A   Mostly Cloudy
9:46 AM 46.4 °F 42.9 °F 39.2 °F 76% 29.81 in 10.0 mi WSW 6.9 mph - N/A   Overcast
9:53 AM 46.9 °F - 39.0 °F 74% 29.79 in 10.0 mi WSW 6.9 mph - N/A   Mostly Cloudy
10:01 AM 46.4 °F 41.1 °F 37.4 °F 71% 29.81 in 10.0 mi WSW 11.5 mph - N/A   Overcast
10:38 AM 48.2 °F - 37.4 °F 66% 29.82 in 10.0 mi SW 12.7 mph 19.6 mph N/A   Mostly Cloudy
10:53 AM 48.0 °F - 37.0 °F 66% 29.80 in 10.0 mi WSW 11.5 mph - N/A   Mostly Cloudy
11:00 AM 50.0 °F - 37.4 °F 62% 29.82 in 10.0 mi WSW 16.1 mph - N/A   Mostly Cloudy
11:11 AM 50.0 °F - 35.6 °F 58% 29.82 in 10.0 mi West 12.7 mph 19.6 mph N/A   Overcast
11:53 AM 52.0 °F - 37.0 °F 57% 29.80 in 10.0 mi WSW 18.4 mph 28.8 mph N/A   Mostly Cloudy
12:53 PM 54.0 °F - 35.1 °F 49% 29.79 in 10.0 mi SW 18.4 mph 25.3 mph N/A   Scattered Clouds
1:53 PM 55.0 °F - 34.0 °F 45% 29.78 in 10.0 mi SW 21.9 mph - N/A   Mostly Cloudy
2:53 PM 52.0 °F - 34.0 °F 50% 29.78 in 10.0 mi West 15.0 mph 27.6 mph N/A   Overcast
3:53 PM 54.0 °F - 33.1 °F 45% 29.79 in 10.0 mi WSW 21.9 mph 31.1 mph N/A   Mostly Cloudy
4:53 PM 52.0 °F - 34.0 °F 50% 29.81 in 10.0 mi WSW 20.7 mph 26.5 mph N/A   Mostly Cloudy
5:53 PM 50.0 °F - 32.0 °F 50% 29.82 in 10.0 mi WSW 21.9 mph 29.9 mph N/A   Mostly Cloudy
6:53 PM 50.0 °F - 33.1 °F 52% 29.84 in 10.0 mi WSW 20.7 mph 28.8 mph N/A   Overcast
7:53 PM 48.0 °F - 33.1 °F 56% 29.86 in 10.0 mi SW 11.5 mph 21.9 mph N/A   Mostly Cloudy
9:53 PM 46.9 °F - 34.0 °F 61% 29.90 in 10.0 mi WSW 17.3 mph 23.0 mph N/A   Mostly Cloudy
10:53 PM 46.9 °F - 33.1 °F 59% 29.92 in 10.0 mi WSW 20.7 mph 24.2 mph N/A   Mostly Cloudy
11:53 PM 46.0 °F 41.4 °F 32.0 °F 58% 29.91 in 10.0 mi WSW 9.2 mph 21.9 mph N/A   Overcast